Weather History for Orange City, IA

Change the Weather History Date:

Tuesday, January 8, 2013

  Actual Average Record
Temperature  
Mean Temperature 22 °F -  
Max Temperature 28 °F 27 °F 60 °F (2002)
Min Temperature 15 °F 11 °F -7 °F (1999)
Degree Days  
Heating Degree Days 44    
Moisture  
Dew Point 19 °F    
Average Humidity 87    
Maximum Humidity 93    
Minimum Humidity 74    
Precipitation  
Precipitation 0.00 in - - ()
Sea Level Pressure  
Sea Level Pressure 29.87 in    
Wind  
Wind Speed 5 mph (SSW)    
Max Wind Speed 14 mph    
Max Gust Speed 17 mph    
Visibility 7 miles    
Events Fog , Snow    
Averages and records for this station are not official NWS values.
T = Trace of Precipitation, MM = Missing Value Source: NWS Daily Summary

Daily Weather History Graph

Daily Weather History Graph

Search for Another Location

Airport:

Trip Planner

Search our weather history database for the weather conditions in past years. The results will help you decide how hot, cold, wet, or windy it might be!

Date:

Astronomy

Jan. 08, 2013 Rise Set
Actual Time 7:55 AM CST 5:07 PM CST
Civil Twilight 7:23 AM CST 5:39 PM CST
Nautical Twilight 6:47 AM CST 6:14 PM CST
Astronomical Twilight 6:13 AM CST 6:49 PM CST
Moon 4:28 AM CST (1/8) 2:10 PM CST (1/8)
Length of Visible Light 10h 16m
Length of Day
9h 12m
Waning Crescent, 13% of the Moon is Illuminated
Jan 8
Waning Crescent
Jan 11
New
Jan 18
First Quarter
Jan 26
Full
Feb 3
Last Quarter

Hourly Weather History & Observations

Time (CST) Temp. Windchill Dew Point Humidity Pressure Visibility Wind Dir Wind Speed Gust Speed Precip Events Conditions
12:15 AM 17.6 °F - 15.8 °F 93% 29.94 in 5.0 mi Calm Calm - N/A   Clear
12:35 AM 19.4 °F - 17.6 °F 93% 29.93 in 4.0 mi Calm Calm - N/A   Clear
12:55 AM 19.4 °F - 17.6 °F 93% 29.93 in 4.0 mi Calm Calm - N/A   Clear
1:15 AM 19.4 °F 14.3 °F 17.6 °F 93% 29.92 in 5.0 mi ESE 3.5 mph - N/A   Clear
1:35 AM 17.6 °F 12.3 °F 15.8 °F 93% 29.92 in 5.0 mi SE 3.5 mph - N/A   Clear
1:55 AM 17.6 °F 12.3 °F 14.0 °F 86% 29.92 in 5.0 mi ESE 3.5 mph - N/A   Clear
2:15 AM 17.6 °F 10.7 °F 15.8 °F 93% 29.91 in 5.0 mi ESE 4.6 mph - N/A   Clear
2:35 AM 15.8 °F 10.2 °F 12.2 °F 86% 29.91 in 2.5 mi East 3.5 mph - N/A Snow Light Snow
2:55 AM 15.8 °F 10.2 °F 12.2 °F 86% 29.90 in 7.0 mi East 3.5 mph - N/A   Clear
3:15 AM 15.8 °F 8.6 °F 12.2 °F 86% 29.90 in 5.0 mi ESE 4.6 mph - N/A   Clear
3:35 AM 15.8 °F 8.6 °F 12.2 °F 86% 29.89 in 4.0 mi East 4.6 mph - N/A   Clear
3:55 AM 15.8 °F 8.6 °F 14.0 °F 93% 29.89 in 7.0 mi ESE 4.6 mph - N/A   Clear
4:15 AM 17.6 °F 12.3 °F 14.0 °F 86% 29.88 in 7.0 mi East 3.5 mph - N/A   Clear
4:35 AM 15.8 °F 8.6 °F 12.2 °F 86% 29.88 in 7.0 mi East 4.6 mph - N/A   Clear
4:55 AM 15.8 °F 8.6 °F 12.2 °F 86% 29.87 in 7.0 mi East 4.6 mph - N/A   Clear
5:15 AM 15.8 °F 10.2 °F 14.0 °F 93% 29.87 in 7.0 mi East 3.5 mph - N/A   Clear
5:35 AM 17.6 °F 12.3 °F 15.8 °F 93% 29.85 in 7.0 mi ESE 3.5 mph - N/A   Clear
5:55 AM 17.6 °F - 15.8 °F 93% 29.86 in 7.0 mi Calm Calm - N/A   Clear
6:15 AM 17.6 °F 12.3 °F 15.8 °F 93% 29.85 in 7.0 mi East 3.5 mph - N/A   Clear
6:35 AM 17.6 °F 12.3 °F 15.8 °F 93% 29.84 in 7.0 mi East 3.5 mph - N/A   Clear
6:55 AM 19.4 °F 14.3 °F 17.6 °F 93% 29.84 in 7.0 mi ESE 3.5 mph - N/A   Clear
7:15 AM 19.4 °F - 17.6 °F 93% 29.84 in 10.0 mi Calm Calm - N/A   Clear
7:35 AM 19.4 °F - 17.6 °F 93% 29.84 in 10.0 mi Calm Calm - N/A   Clear
7:55 AM 19.4 °F 12.8 °F 17.6 °F 93% 29.83 in 7.0 mi ESE 4.6 mph - N/A   Clear
8:15 AM 19.4 °F 12.8 °F 17.6 °F 93% 29.82 in 7.0 mi ESE 4.6 mph - N/A   Clear
8:35 AM 19.4 °F - 17.6 °F 93% 29.83 in 7.0 mi Calm Calm - N/A   Clear
8:55 AM 19.4 °F - 17.6 °F 93% 29.82 in 7.0 mi Calm Calm - N/A   Clear
9:15 AM 21.2 °F - 19.4 °F 93% 29.84 in 7.0 mi Calm Calm - N/A   Clear
9:35 AM 21.2 °F 16.4 °F 19.4 °F 93% 29.82 in 7.0 mi SSE 3.5 mph - N/A   Clear
9:55 AM 23.0 °F 17.0 °F 19.4 °F 86% 29.82 in 7.0 mi South 4.6 mph - N/A   Clear
10:15 AM 24.8 °F 16.1 °F 21.2 °F 86% 29.81 in 7.0 mi South 8.1 mph - N/A   Clear
10:35 AM 24.8 °F 14.0 °F 21.2 °F 86% 29.80 in 7.0 mi South 11.5 mph - N/A   Clear
10:55 AM 24.8 °F 14.6 °F 21.2 °F 86% 29.80 in 5.0 mi South 10.4 mph - N/A   Mostly Cloudy
11:15 AM 24.8 °F 12.9 °F 23.0 °F 93% 29.80 in 3.0 mi South 13.8 mph - N/A   Overcast
11:35 AM 26.6 °F 16.2 °F 23.0 °F 86% 29.79 in 2.0 mi SSW 11.5 mph - N/A   Overcast
11:55 AM 26.6 °F 17.5 °F 24.8 °F 93% 29.78 in 1.8 mi SSW 9.2 mph - N/A   Overcast
12:55 PM 24.8 °F 14.6 °F 21.2 °F 86% 29.74 in 0.2 mi South 10.4 mph - N/A Fog Light Freezing Fog
1:15 PM 24.8 °F 13.4 °F 21.2 °F 86% 29.75 in 0.5 mi SSW 12.7 mph 17.3 mph N/A Fog Light Freezing Fog
1:55 PM 24.8 °F 13.4 °F 21.2 °F 86% 29.76 in 2.5 mi SSW 12.7 mph - N/A   Overcast
2:15 PM 24.8 °F 14.6 °F 21.2 °F 86% 29.76 in 4.0 mi SW 10.4 mph - N/A   Overcast
2:35 PM 24.8 °F 13.4 °F 21.2 °F 86% 29.77 in 4.0 mi SW 12.7 mph - N/A   Mostly Cloudy
2:55 PM 26.6 °F 16.2 °F 23.0 °F 86% 29.78 in 5.0 mi SW 11.5 mph - N/A   Scattered Clouds
3:15 PM 26.6 °F 17.5 °F 23.0 °F 86% 29.79 in 7.0 mi SSW 9.2 mph - N/A   Clear
3:35 PM 28.4 °F 19.1 °F 23.0 °F 80% 29.79 in 7.0 mi SW 10.4 mph - N/A   Clear
3:55 PM 28.4 °F 20.4 °F 23.0 °F 80% 29.81 in 10.0 mi SW 8.1 mph - N/A   Clear
4:15 PM 28.4 °F 19.7 °F 23.0 °F 80% 29.82 in 10.0 mi SW 9.2 mph - N/A   Clear
4:35 PM 28.4 °F 19.1 °F 23.0 °F 80% 29.82 in 10.0 mi SW 10.4 mph - N/A   Clear
4:55 PM 28.4 °F 18.5 °F 23.0 °F 80% 29.84 in 10.0 mi SW 11.5 mph - N/A   Clear
5:15 PM 28.4 °F 18.0 °F 24.8 °F 86% 29.86 in 10.0 mi WSW 12.7 mph - N/A   Clear
5:35 PM 28.4 °F 21.2 °F 23.0 °F 80% 29.86 in 10.0 mi SW 6.9 mph - N/A   Clear
5:55 PM 28.4 °F 22.2 °F 23.0 °F 80% 29.87 in 10.0 mi SW 5.8 mph - N/A   Clear
6:15 PM 28.4 °F 19.7 °F 21.2 °F 74% 29.88 in 10.0 mi WSW 9.2 mph - N/A   Clear
6:35 PM 26.6 °F 19.1 °F 21.2 °F 80% 29.89 in 10.0 mi WSW 6.9 mph - N/A   Clear
6:55 PM 24.8 °F 16.9 °F 19.4 °F 80% 29.89 in 10.0 mi West 6.9 mph - N/A   Clear
7:15 PM 24.8 °F 15.3 °F 21.2 °F 86% 29.91 in 10.0 mi West 9.2 mph - N/A   Clear
7:35 PM 26.6 °F 16.8 °F 23.0 °F 86% 29.92 in 10.0 mi West 10.4 mph - N/A   Clear
7:55 PM 26.6 °F 16.8 °F 21.2 °F 80% 29.92 in 10.0 mi West 10.4 mph - N/A   Clear
8:15 PM 26.6 °F 18.2 °F 21.2 °F 80% 29.94 in 10.0 mi WNW 8.1 mph - N/A   Clear
8:35 PM 26.6 °F 17.5 °F 21.2 °F 80% 29.95 in 10.0 mi WNW 9.2 mph - N/A   Clear
8:55 PM 26.6 °F 20.0 °F 21.2 °F 80% 29.96 in 10.0 mi WNW 5.8 mph - N/A   Clear
9:15 PM 28.4 °F 21.2 °F 23.0 °F 80% 29.97 in 10.0 mi WNW 6.9 mph - N/A   Clear
9:35 PM 28.4 °F 21.2 °F 23.0 °F 80% 29.98 in 10.0 mi WNW 6.9 mph - N/A   Clear
9:55 PM 26.6 °F 18.2 °F 21.2 °F 80% 29.99 in 10.0 mi West 8.1 mph - N/A   Clear
10:15 PM 26.6 °F 22.6 °F 23.0 °F 86% 29.99 in 10.0 mi WNW 3.5 mph - N/A   Clear
10:35 PM 28.4 °F 22.2 °F 23.0 °F 80% 30.01 in 10.0 mi WNW 5.8 mph - N/A   Clear
10:55 PM 26.6 °F 17.5 °F 21.2 °F 80% 30.02 in 10.0 mi West 9.2 mph - N/A   Clear
11:15 PM 26.6 °F 16.8 °F 21.2 °F 80% 30.03 in 10.0 mi WSW 10.4 mph - N/A   Clear
11:55 PM 28.4 °F 19.1 °F 24.8 °F 86% 30.05 in 10.0 mi West 10.4 mph - N/A   Clear